Weather History for Lakehurst NAS, NJ

Change the Weather History Date:

Sunday, February 17, 2013

  Actual Average Record
Temperature  
Mean Temperature 28 °F -  
Max Temperature 19 °F 43 °F 63 °F (1999)
Min Temperature 21 °F 30 °F 12 °F (2014)
Degree Days  
Heating Degree Days 38    
Moisture  
Dew Point 5 °F    
Average Humidity 36    
Maximum Humidity 50    
Minimum Humidity 29    
Precipitation  
Precipitation 0.00 in - - ()
Sea Level Pressure  
Sea Level Pressure 29.79 in    
Wind  
Wind Speed 14 mph (NW)    
Max Wind Speed 31 mph    
Max Gust Speed 40 mph    
Averages and records for this station are not official NWS values.
T = Trace of Precipitation, MM = Missing Value Source: NWS Daily Summary

Daily Weather History Graph

Daily Weather History Graph

Search for Another Location

Airport:

Trip Planner

Search our weather history database for the weather conditions in past years. The results will help you decide how hot, cold, wet, or windy it might be!

Date:

Astronomy

Feb. 17, 2013 Rise Set
Actual Time 6:47 AM EST 5:35 PM EST
Civil Twilight 6:19 AM EST 6:03 PM EST
Nautical Twilight 5:48 AM EST 6:35 PM EST
Astronomical Twilight 5:16 AM EST 7:06 PM EST
Moon 10:38 AM EST (2/17) 12:29 AM EST (2/17)
Length of Visible Light 11h 43m
Length of Day
10h 48m
Waxing Crescent, 49% of the Moon is Illuminated
Feb 17
Waxing Crescent
Feb 17
First Quarter
Feb 25
Full
Mar 4
Last Quarter
Mar 11
New

Hourly Weather History & Observations

Time (EST) Temp. Windchill Dew Point Humidity Pressure Visibility Wind Dir Wind Speed Gust Speed Precip Events Conditions
12:00 AM 32.0 °F 24.2 °F 15.1 °F 50% 29.72 in - North 9.2 mph 16.1 mph N/A   Overcast
1:00 AM 30.0 °F 21.1 °F 12.0 °F 47% 29.71 in - NNW 10.4 mph - N/A   Overcast
2:00 AM 30.0 °F 20.5 °F 10.0 °F 43% 29.70 in - NNW 11.5 mph 18.4 mph N/A   Overcast
3:00 AM 28.9 °F 21.9 °F 10.0 °F 45% 29.70 in - Variable 6.9 mph - N/A   Overcast
4:00 AM 28.9 °F 19.2 °F 9.0 °F 43% 29.69 in - NNW 11.5 mph 16.1 mph N/A   Overcast
7:00 AM 28.0 °F 17.0 °F 3.0 °F 34% 29.70 in - NW 13.8 mph 28.8 mph N/A   Clear
8:00 AM 27.0 °F 16.7 °F 3.0 °F 36% 29.72 in - NW 11.5 mph 21.9 mph N/A   Clear
9:00 AM 28.9 °F 16.9 °F 5.0 °F 36% 29.71 in - WNW 17.3 mph 29.9 mph N/A   Clear
10:22 AM - - - N/A% - - North - - N/A   Unknown
11:00 AM 30.9 °F 18.1 °F 3.9 °F 32% 29.73 in - WNW 21.9 mph 34.5 mph N/A   Clear
12:00 PM 32.0 °F 20.8 °F 3.0 °F 29% 29.74 in - NNW 17.3 mph 40.3 mph N/A   Clear
1:00 PM 32.0 °F 17.4 °F 3.0 °F 29% 29.74 in - WNW 31.1 mph 38.0 mph N/A   Partly Cloudy
2:00 PM 32.0 °F 19.5 °F 3.9 °F 31% 29.75 in - NW 21.9 mph 34.5 mph N/A   Overcast
3:00 PM 30.0 °F 17.5 °F 1.9 °F 30% 29.78 in - WNW 19.6 mph 34.5 mph N/A   Overcast
4:00 PM 30.9 °F 19.4 °F 3.9 °F 32% 29.79 in - NW 17.3 mph 26.5 mph N/A   Overcast
5:00 PM 28.9 °F 16.9 °F 3.0 °F 33% 29.81 in - WNW 17.3 mph 29.9 mph N/A   Mostly Cloudy
6:00 PM 28.0 °F 16.5 °F 6.1 °F 39% 29.86 in - NW 15.0 mph 27.6 mph 0.00 in   Overcast
7:00 PM 27.0 °F 14.3 °F 3.0 °F 36% 29.88 in - WNW 17.3 mph 29.9 mph N/A   Clear
8:00 PM 26.1 °F 15.0 °F 3.0 °F 37% 29.92 in - NW 12.7 mph 27.6 mph N/A   Mostly Cloudy
9:00 PM 25.0 °F 9.9 °F -2.0 °F 31% 29.96 in - WNW 23.0 mph 36.8 mph N/A   Clear
10:00 PM 23.0 °F 8.7 °F -2.0 °F 34% 30.00 in - WNW 18.4 mph 26.5 mph N/A   Clear
11:00 PM 21.0 °F 5.7 °F -2.0 °F 36% 30.02 in - NW 19.6 mph 36.8 mph N/A   Clear